Вернуться в каталог

COSMOS 839 DEB

АктивенUNKNOWN
NORAD 12332·DEBRIS·🇷🇺 Russia

Запущен Jul 8, 1976 с Plesetsk Cosmodrome

Loading…

Ближайшие Пролёты (ближайшие 24 часа)

TLE

СвежийSource: Space-Track

Эпоха: Sep 14, 2026, 08:45 UTC

1 12332U 76067AY  26257.36474620 -.00000088  00000-0 -12210-3 0  9998
2 12332  66.0603  22.0358 0716316  53.8407 341.6267 12.32369079103785

Отслеживайте COSMOS 839 DEB в реальном времени с AllMySat

Download on the App Store